This is the latest recevied weather packets stored in our database for station/object E25HML-13. If no packets are shown the sender has not sent any weather packets the latest 10 day(s).
| Time | Temp. | Humidity | Pressure | Rain* | Wind** | Luminosity | Snow |
|---|---|---|---|---|---|---|---|
| 1777921713 | 33.89° C | 62% | 1007.5 hPa | - | - | - | - |
| 1777921413 | 33.89° C | 62% | 1007.2 hPa | - | - | - | - |
| 1777921113 | 34.44° C | 61% | 1007.3 hPa | - | - | - | - |
| 1777920813 | 34.44° C | 61% | 1007.3 hPa | - | - | - | - |
| 1777920513 | 34.44° C | 61% | 1007.2 hPa | - | - | - | - |
| 1777920212 | 34.44° C | 61% | 1007.3 hPa | - | - | - | - |
| 1777919912 | 34.44° C | 61% | 1007.3 hPa | - | - | - | - |
| 1777919613 | 34.44° C | 61% | 1007.4 hPa | - | - | - | - |
| 1777919013 | 34.44° C | 61% | 1007.5 hPa | - | - | - | - |
| 1777918713 | 35° C | 61% | 1007.6 hPa | - | - | - | - |
| 1777918416 | 34.44° C | 61% | 1007.5 hPa | - | - | - | - |
| 1777918113 | 34.44° C | 62% | 1007.6 hPa | - | - | - | - |
| 1777917813 | 33.89° C | 63% | 1007.5 hPa | - | - | - | - |
| 1777917513 | 33.89° C | 63% | 1007.5 hPa | - | - | - | - |
| 1777917213 | 33.89° C | 64% | 1007.6 hPa | - | - | - | - |
| 1777916913 | 33.33° C | 65% | 1007.8 hPa | - | - | - | - |
| 1777916614 | 33.33° C | 65% | 1007.8 hPa | - | - | - | - |
| 1777916313 | 33.33° C | 65% | 1007.8 hPa | - | - | - | - |
| 1777916013 | 33.33° C | 65% | 1007.8 hPa | - | - | - | - |
| 1777915712 | 34.44° C | 63% | 1007.6 hPa | - | - | - | - |
| 1777915412 | 34.44° C | 62% | 1007.7 hPa | - | - | - | - |
| 1777915113 | 34.44° C | 62% | 1007.6 hPa | - | - | - | - |
| 1777914813 | 34.44° C | 62% | 1007.5 hPa | - | - | - | - |
| 1777914514 | 34.44° C | 62% | 1007.6 hPa | - | - | - | - |
| 1777914213 | 34.44° C | 63% | 1007.7 hPa | - | - | - | - |
* Rain since midnight (hover to see other rain measurements)
** Current wind speed in m/s (hover to see current wind gust speed)